CXO

Last updated on Nov. 19, 2019, 4:26 a.m. UTC

1 25867U 99040B   19322.60140111  .00000856  00000-0  00000-0 0  9990
2 25867  65.7630 272.2977 7416434 231.1198   0.0919  0.37806068  8260
UTC
Height (km)
Latitude
Longitude
Inclination
Orbital Period
UTC large
Height (km)
Speed (km/s)
/
Latitude / Longitude
Inclination (degrees)
Orbital Period (minutes)
Azimuth
Elevation
Range (km)
Doppler Factor
iOS Compass Heading
iOS Angle

Next 30 passes for location: Hong Kong

Rise time Rise Azimuth (degrees) Set time Set Azimuth (degrees) Duration Max altitude (degrees)

No matching passes for this satellites